User: anonymous   Login
Location: Unspecified
(0.0000°N, 0.0000°E)
Time: 02:57:09
(UTC+00:00)
Language:

Kiku-3 - Orbit

View from above orbital plane
View from above orbital plane
View from above satellite
View from above satellite

Ground track
Ground track

The orbit data is extracted from the following two-line orbital elements,

1 12295U 81012A   18171.41187004  .00001091  00000-0  24761-3 0  9998
2 12295  28.4050 220.0180 5019300 139.6421 271.2424  5.56820728473972
Epoch (UTC): 20 June 2018 09:53:05
Eccentricity: 0.5019300
inclination: 28.4050°
perigee height: 319 km
apogee height: 13816 km
right ascension of ascending node: 220.0180°
argument of perigee: 139.6421°
revolutions per day: 5.56820728
mean anomaly at epoch: 271.2424°
orbit number at epoch: 47397

The dashed part of the orbit path shows where the satellite is in the earth's shadow,  

DLR